Location: Wavehorne
(51.0500°N, 0.8333°E)
Time: 01:31:16
(UTC+00:00)

Cosmos 405 Rocket - Pass Details

Date: 20 June 2021
Orbit: 489 x 552 km, 81.3° (Epoch: 04 August)

Event Time Altitude Azimuth Distance (km) Brightness Sun altitude
Exits shadow 00:23:40 22° 142° (SE) 1,122 4.0 -15.3°
Maximum altitude 00:25:23 34° 94° (E) 835 3.7 -15.3°
Drops below altitude 10° 00:28:45 10° 29° (NNE) 1,694 6.4 -15.2°
Sets 00:30:59 0° 20° (NNE) 2,585 7.9 -15.2°
